O3B FM12

Last updated on Wed Jun 24 2026 00:03:25 GMT+0000 (Coordinated Universal Time)

1 40350U 14083C 26173.59610340 -.00000022 00000+0 00000+0 0 9998 2 40350 0.0545 353.9364 0002524 95.2125 270.8784 5.00115971210196
UTC large
Height (km)
Speed (km/s)
/
Latitude / Longitude
Inclination (degrees)
Orbital Period (minutes)
Azimuth
Elevation
Range (km)
Doppler Factor

Next 0 passes for location: London (51.5072 / 0.1276)

No passes found over London.
O3B FM12